Location: Obersdorf
(47.4079°N, 10.2781°E)
Time: 08:22:00
(UTC+02:00)

Envisat - Pass Details

Date: 02 October 2021
Orbit: 764 x 766 km, 98.2° (Epoch: 23 October)

Event Time Altitude Azimuth Distance (km) Brightness Sun altitude
Rises 04:57:05 0° 33° (NNE) 3,241 7.1 -24.4°
Reaches altitude 10° 05:01:05 10° 64° (ENE) 2,307 6.6 -23.7°
Maximum altitude 05:02:57 12° 86° (E) 2,172 6.3 -23.4°
Drops below altitude 10° 05:04:49 10° 108° (ESE) 2,301 6.1 -23.1°
Sets 05:08:46 0° 139° (SE) 3,219 6.5 -22.5°
